Hourly Data Report for October 22, 2015

All times are specified in Local Standard Time (LST). Add 1 hour to adjust for Daylight Saving Time where and when it is observed.

CLYDE RIVER A
NUNAVUT

70°29'09.000" N
68°31'01.000" W
26.50 m
2400804
71090
YCY

Download Data

Hourly Data (October 2015)
Hourly Data Report for October 22, 2015
Temp Definition
°C
Dew Point Temp Definition
°C
Rel Hum Definition
%
Wind Dir Definition
10's deg

Wind Spd Definition
km/h
Visibility Definition
km
Stn Press Definition
kPa
Hmdx Definition


Wind Chill Definition


Weather Definition


TIME
00:00 Legend Double Dagger -12.7 -17.0 71 24 8 16.1 100.09   -18 LegendNANA
01:00 Legend Double Dagger -11.9 -16.1 71 26 9 16.1 100.05   -17 LegendNANA
02:00 Legend Double Dagger -13.8 -17.5 74 27 21 16.1 100.05   -23 LegendNANA
03:00 Legend Double Dagger -12.7 -17.1 70 30 22 16.1 100.03   -22 LegendNANA
04:00 Legend Double Dagger -13.0 -17.2 71 29 28 16.1 100.04   -23 LegendNANA
05:00 Legend Double Dagger -12.5 -16.9 70 29 28 16.1 100.07   -22 LegendNANA
06:00 Legend Double Dagger -10.5 -14.5 73 27 21 16.1 100.07   -19 LegendNANA
07:00 Legend Double Dagger -9.6 -14.1 70 29 21 16.1 100.10   -18 LegendNANA
08:00 Legend Double Dagger -13.0 -16.7 74 29 26 16.1 100.09   -23 LegendNANA
09:00 Legend Double Dagger -11.1 -15.9 68 22 8 16.1 100.13   -16 LegendNANA
10:00 Legend Double Dagger -12.5 -16.4 73 22 11 16.1 100.16   -19 LegendNANA
11:00 Legend Double Dagger -9.4 -14.8 65 22 5 16.1 100.16   -12 LegendNANA
12:00 Legend Double Dagger -8.5 -14.1 64 26 9 16.1 100.17   -13 LegendNANA
13:00 Legend Double Dagger -11.2 -14.8 75 27 18 16.1 100.20   -19 LegendNANA
14:00 Legend Double Dagger -9.9 -13.9 73 29 18 16.1 100.22   -17 LegendNANA
15:00 Legend Double Dagger -10.7 -14.6 73 29 21 16.1 100.25   -19 LegendNANA
16:00 Legend Double Dagger -13.3 -16.8 75 27 18 16.1 100.28   -22 LegendNANA
17:00 Legend Double Dagger -11.6 -16.5 67 26 9 16.1 100.29   -17 LegendNANA
18:00 Legend Double Dagger -14.3 -18.3 72 27 17 16.1 100.32   -23 LegendNANA
19:00 Legend Double Dagger -11.2 -16.9 63 27 9 16.1 100.31   -16 LegendNANA
20:00 Legend Double Dagger -12.9 -17.0 72 26 9 16.1 100.29   -18 LegendNANA
21:00 Legend Double Dagger -11.6 -16.2 69 25 11 16.1 100.26   -18 LegendNANA
22:00 Legend Double Dagger -12.4 -16.5 72   0 16.1 100.23     LegendNANA
23:00 Legend Double Dagger -10.9 -15.5 69 24 5 16.1 100.19   -14 LegendNANA

Notes on Data Quality.

Legend

  • E = Estimated
  • M = Missing
  • NA = Not Available
  • ‡ = Partner data that is not subject to review by the National Climate Archives
Date modified: